CW3783 Weather Reports


Display with metric or nautical units.
time (UTC)temp
F
wind
direction
speed
MPH
gust
MPH
rain 1hr
in
rain 24hr
in
rain mn
in
humidity
%
barometer
mb
20260903200804 88 276 5.0 12.0 0.00 0.03 0.03 66 1012.0
20260903200304 88 219 3.0 12.0 0.00 0.03 0.03 67 1012.1
20260903195805 88 227 2.0 6.0 0.00 0.03 0.03 68 1012.1
20260903195306 88 281 2.0 5.0 0.00 0.03 0.03 68 1012.2
20260903194805 87 279 4.0 9.0 0.00 0.03 0.03 70 1012.4
20260903194305 87 253 2.0 3.0 0.00 0.03 0.03 70 1012.4
20260903193306 86 322 3.0 7.0 0.00 0.03 0.03 71 1012.6
20260903192804 86 289 2.0 7.0 0.00 0.03 0.03 70 1012.7
20260903192306 86 289 3.0 7.0 0.00 0.03 0.03 69 1012.7
20260903191804 87 240 6.0 12.0 0.00 0.03 0.03 69 1012.9
20260903191304 87 286 6.0 10.0 0.00 0.03 0.03 69 1012.9
20260903190804 87 288 4.0 9.0 0.00 0.03 0.03 69 1013.0
20260903190304 87 248 2.0 8.0 0.00 0.03 0.03 70 1013.1
20260903185804 87 281 5.0 12.0 0.00 0.03 0.03 69 1013.0
20260903185306 87 248 6.0 14.0 0.00 0.03 0.03 68 1013.0
20260903184805 87 275 6.0 12.0 0.00 0.03 0.03 71 1013.1
20260903184305 87 307 5.0 9.0 0.00 0.03 0.03 71 1013.0
20260903183804 86 301 1.0 3.0 0.00 0.03 0.03 72 1013.0
20260903183304 86 243 5.0 10.0 0.00 0.03 0.03 72 1013.0
20260903182804 85 232 5.0 12.0 0.00 0.03 0.03 74 1013.1
20260903182306 85 253 4.0 12.0 0.00 0.03 0.03 74 1013.1
20260903181804 85 232 5.0 8.0 0.00 0.03 0.03 75 1013.1
20260903181305 84 263 4.0 8.0 0.00 0.03 0.03 76 1013.0
20260903180805 83 280 5.0 14.0 0.00 0.03 0.03 77 1013.1
20260903180304 83 269 5.0 12.0 0.00 0.03 0.03 78 1013.4
20260903175804 82 277 5.0 12.0 0.00 0.03 0.03 80 1013.5
20260903175306 82 287 6.0 10.0 0.00 0.04 0.03 82 1013.5
20260903174305 81 218 5.0 9.0 0.00 0.04 0.03 86 1013.5
20260903173805 80 267 2.0 5.0 0.00 0.04 0.03 87 1013.7
20260903173305 80 249 1.0 10.0 0.00 0.04 0.03 88 1013.8
20260903172804 79 125 4.0 12.0 0.00 0.06 0.03 90 1013.8
20260903171304 78 255 3.0 8.0 0.02 0.15 0.03 91 1014.1
20260903170805 78 252 2.0 7.0 0.02 0.24 0.03 91 1014.0
20260903170305 78 204 2.0 10.0 0.02 0.38 0.03 92 1014.0
20260903165805 78 253 3.0 10.0 0.02 0.38 0.03 92 1013.9
20260903165306 78 225 5.0 10.0 0.02 0.38 0.03 92 1013.9
20260903164805 77 230 6.0 12.0 0.03 0.38 0.03 92 1014.1
20260903164305 78 242 5.0 13.0 0.03 0.38 0.03 91 1014.2
20260903163805 78 227 5.0 10.0 0.03 0.38 0.03 91 1014.2
20260903162804 78 278 2.0 9.0 0.03 0.38 0.03 90 1013.8
20260903162306 78 164 1.0 6.0 0.03 0.38 0.03 90 1014.1
20260903161804 78 208 1.0 3.0 0.02 0.37 0.02 90 1014.8
20260903161306 78 205 3.0 5.0 0.01 0.36 0.01 89 1015.1
20260903160805 79 178 2.0 5.0 0.01 0.36 0.01 89 1015.0
20260903160304 79 169 1.0 3.0 0.01 0.36 0.01 88 1015.1
20260903155805 79 291 1.0 7.0 0.01 0.36 0.01 88 1015.6
20260903155306 79 282 2.0 7.0 0.01 0.36 0.01 88 1016.0
20260903154805 79 331 4.0 12.0 0.00 0.35 0.00 87 1016.2
20260903154304 80 302 7.0 14.0 0.00 0.35 0.00 87 1016.7
20260903153804 80 321 9.0 17.0 0.00 0.35 0.00 87 1016.8
20260903152804 80 290 5.0 8.0 0.00 0.35 0.00 87 1015.6
20260903152306 80 348 2.0 3.0 0.00 0.35 0.00 87 1015.2
20260903151805 80 295 4.0 10.0 0.00 0.35 0.00 88 1015.2
20260903151305 80 261 3.0 8.0 0.00 0.35 0.00 89 1015.4
20260903150805 80 284 4.0 9.0 0.00 0.35 0.00 89 1015.4
20260903150305 79 224 2.0 10.0 0.00 0.35 0.00 89 1015.3
20260903145805 79 206 3.0 12.0 0.00 0.35 0.00 90 1015.1
20260903144805 79 250 4.0 10.0 0.00 0.35 0.00 91 1014.9
20260903143805 78 233 1.0 6.0 0.00 0.35 0.00 92 1014.7
20260903143305 78 249 2.0 6.0 0.00 0.35 0.00 93 1014.5
20260903142804 77 244 5.0 10.0 0.00 0.35 0.00 93 1014.6
20260903141804 77 204 2.0 12.0 0.00 0.35 0.00 94 1014.6
20260903141305 77 223 4.0 10.0 0.00 0.35 0.00 95 1014.7
20260903140805 77 213 3.0 9.0 0.00 0.35 0.00 95 1014.6
20260903140305 77 189 5.0 10.0 0.00 0.35 0.00 96 1014.4
20260903135804 76 192 5.0 10.0 0.00 0.35 0.00 96 1014.4
20260903135306 76 181 6.0 12.0 0.00 0.35 0.00 96 1014.4
20260903134805 76 174 3.0 7.0 0.00 0.35 0.00 96 1014.5
20260903134305 75 211 6.0 10.0 0.00 0.35 0.00 96 1014.6
20260903133805 75 197 5.0 10.0 0.00 0.35 0.00 96 1014.1
20260903133305 75 171 5.0 9.0 0.00 0.35 0.00 96 1014.2
20260903132804 75 158 5.0 8.0 0.00 0.35 0.00 96 1014.0
20260903132306 75 141 2.0 3.0 0.00 0.35 0.00 96 1014.6
20260903131805 75 196 0.0 5.0 0.00 0.35 0.00 96 1015.2
20260903131304 75 239 3.0 5.0 0.00 0.35 0.00 96 1015.2
20260903130805 75 190 4.0 8.0 0.00 0.35 0.00 96 1015.0
20260903130304 75 196 4.0 7.0 0.00 0.35 0.00 96 1015.0
20260903125804 75 198 4.0 7.0 0.00 0.35 0.00 96 1015.3
20260903125305 75 203 3.0 5.0 0.00 0.35 0.00 96 1015.5
20260903124804 75 174 3.0 3.0 0.00 0.35 0.00 96 1015.6
20260903124305 75 170 3.0 7.0 0.00 0.35 0.00 96 1015.7
20260903123805 75 190 3.0 7.0 0.00 0.35 0.00 96 1015.7
20260903123304 75 194 4.0 8.0 0.00 0.35 0.00 96 1015.8
20260903121804 74 185 1.0 3.0 0.00 0.35 0.00 96 1015.9
20260903121304 74 177 4.0 6.0 0.00 0.35 0.00 96 1015.9
20260903120805 74 117 1.0 3.0 0.00 0.35 0.00 96 1016.1
20260903120304 74 99 1.0 3.0 0.00 0.35 0.00 96 1016.1
20260903115804 74 99 1.0 3.0 0.00 0.35 0.00 96 1016.2
20260903114805 74 6 1.0 3.0 0.00 0.35 0.00 96 1016.5
20260903114304 74 6 2.0 3.0 0.00 0.35 0.00 96 1016.5
20260903113804 74 6 1.0 5.0 0.00 0.35 0.00 96 1016.8
20260903113304 74 10 4.0 7.0 0.00 0.35 0.00 96 1016.9
20260903112804 74 14 5.0 8.0 0.00 0.35 0.00 96 1016.9
20260903111804 74 1 5.0 12.0 0.00 0.35 0.00 96 1016.7
20260903111304 74 7 6.0 12.0 0.00 0.35 0.00 96 1016.7
20260903110804 74 2 8.0 12.0 0.00 0.35 0.00 96 1016.5
20260903105306 74 18 2.0 3.0 0.00 0.35 0.00 96 1015.7
20260903104806 74 43 2.0 3.0 0.00 0.35 0.00 96 1015.7
20260903104304 74 5 3.0 5.0 0.00 0.35 0.00 96 1015.8
20260903103804 74 13 3.0 5.0 0.00 0.35 0.00 96 1015.7
20260903103305 74 13 2.0 3.0 0.00 0.35 0.00 96 1015.5
20260903102306 74 13 1.0 2.0 0.00 0.35 0.00 96 1015.4
20260903101805 74 13 2.0 3.0 0.00 0.35 0.00 96 1015.5
20260903100804 74 13 1.0 2.0 0.00 0.35 0.00 96 1015.3
20260903100304 74 13 2.0 3.0 0.00 0.35 0.00 96 1015.4
20260903095806 73 24 0.0 2.0 0.00 0.35 0.00 96 1015.3
20260903095306 73 24 4.0 8.0 0.00 0.35 0.00 96 1015.4
20260903093804 73 2 6.0 10.0 0.00 0.35 0.00 96 1015.3
20260903093304 73 129 1.0 2.0 0.00 0.35 0.00 96 1014.8
20260903092805 73 129 1.0 3.0 0.00 0.35 0.00 96 1014.9
20260903092307 73 129 1.0 2.0 0.00 0.35 0.00 96 1014.8
20260903091805 73 129 0.0 1.0 0.00 0.35 0.00 96 1014.9
20260903091306 73 129 1.0 2.0 0.00 0.35 0.00 96 1014.9
20260903090805 73 129 1.0 3.0 0.00 0.35 0.00 96 1014.9
20260903090306 73 129 1.0 2.0 0.00 0.35 0.00 96 1015.0
20260903085804 73 129 0.0 1.0 0.00 0.35 0.00 96 1015.1
20260903085306 73 129 0.0 0.0 0.00 0.35 0.00 96 1015.1
20260903084804 73 129 0.0 1.0 0.00 0.35 0.00 96 1015.1
20260903083305 73 129 0.0 2.0 0.00 0.35 0.00 96 1015.0
20260903082805 73 129 1.0 2.0 0.00 0.35 0.00 96 1014.9
20260903082306 73 129 1.0 2.0 0.00 0.35 0.00 96 1015.0
20260903081804 73 129 0.0 2.0 0.00 0.35 0.00 96 1015.0
20260903081305 73 129 1.0 3.0 0.00 0.35 0.00 96 1014.9
20260903080804 73 12 0.0 3.0 0.00 0.35 0.00 96 1015.0
20260903080304 73 12 3.0 5.0 0.00 0.35 0.00 96 1015.3
20260903075804 73 9 3.0 5.0 0.00 0.35 0.00 96 1015.2
20260903075306 73 97 0.0 0.0 0.00 0.35 0.00 95 1015.1
20260903074804 73 97 0.0 0.0 0.00 0.35 0.00 95 1014.9
20260903074304 73 97 0.0 1.0 0.00 0.35 0.00 95 1015.0
20260903073805 73 97 0.0 1.0 0.00 0.35 0.00 95 1015.2
20260903073305 73 97 1.0 2.0 0.00 0.35 0.00 95 1015.0
20260903072805 73 97 1.0 2.0 0.00 0.35 0.00 95 1014.9
20260903072306 73 97 1.0 2.0 0.00 0.35 0.00 95 1015.1
20260903071804 73 110 1.0 3.0 0.00 0.35 0.00 95 1015.0
20260903071304 73 54 2.0 3.0 0.00 0.35 0.00 95 1015.1
20260903070804 73 94 2.0 3.0 0.00 0.35 0.00 95 1015.0
20260903065306 73 195 1.0 3.0 0.00 0.35 0.00 95 1014.7
20260903064804 73 189 2.0 3.0 0.00 0.35 0.00 95 1014.6
20260903064304 73 210 2.0 5.0 0.00 0.35 0.00 95 1014.5
20260903063805 73 171 2.0 3.0 0.00 0.35 0.00 95 1014.5
20260903063305 73 192 2.0 3.0 0.00 0.35 0.00 95 1014.5
20260903062805 73 177 2.0 3.0 0.00 0.35 0.00 95 1014.5
20260903062306 73 180 2.0 5.0 0.00 0.35 0.00 95 1014.5
20260903061804 73 235 1.0 3.0 0.00 0.35 0.00 95 1014.7
20260903061305 72 235 0.0 1.0 0.00 0.35 0.00 95 1014.8
20260903060805 72 235 0.0 1.0 0.00 0.35 0.00 94 1014.8
20260903060305 73 235 0.0 1.0 0.00 0.35 0.00 94 1014.7
20260903055804 73 235 0.0 1.0 0.00 0.35 0.00 94 1014.6
20260903054804 73 235 1.0 2.0 0.00 0.35 0.00 94 1014.8
20260903054304 73 235 1.0 3.0 0.00 0.35 0.00 94 1014.8
20260903052307 72 23 2.0 3.0 0.00 0.35 0.00 94 1015.1
20260903051805 72 23 1.0 1.0 0.00 0.35 0.00 94 1015.2
20260903051305 72 23 0.0 0.0 0.00 0.35 0.00 94 1015.1
20260903050805 72 23 0.0 0.0 0.00 0.35 0.00 94 1015.1
20260903050304 72 23 1.0 2.0 0.00 0.35 0.00 94 1015.1
20260903045804 73 23 0.0 1.0 0.00 0.35 0.00 94 1015.2
20260903045306 73 23 1.0 2.0 0.00 0.35 0.00 94 1015.0
20260903044804 73 23 1.0 2.0 0.00 0.35 0.00 93 1015.0
20260903044304 73 23 0.0 0.0 0.00 0.35 0.00 93 1015.2
20260903043804 73 23 1.0 3.0 0.00 0.35 0.00 93 1015.3
20260903042804 73 180 0.0 1.0 0.00 0.35 0.00 93 1015.0
20260903042306 73 180 1.0 1.0 0.00 0.35 0.00 93 1015.2
20260903041804 73 180 0.0 2.0 0.00 0.35 0.00 93 1015.2
20260903040804 73 180 0.0 0.0 0.00 0.35 0.00 93 1015.6
20260903040304 73 180 0.0 2.0 0.00 0.35 0.00 93 1015.7
20260903035805 73 180 1.0 2.0 0.00 0.35 0.35 93 1015.8
20260903035306 73 180 1.0 1.0 0.00 0.35 0.35 93 1015.9
20260903034305 73 180 1.0 2.0 0.00 0.35 0.35 93 1015.9
20260903033305 73 180 0.0 2.0 0.00 0.35 0.35 93 1015.9
20260903032805 73 180 1.0 2.0 0.00 0.35 0.35 93 1015.7
20260903032306 73 180 1.0 2.0 0.00 0.35 0.35 93 1015.7
20260903031805 73 180 0.0 2.0 0.00 0.35 0.35 93 1015.8
20260903030804 73 180 1.0 2.0 0.00 0.35 0.35 93 1015.5
20260903030305 73 168 1.0 3.0 0.00 0.35 0.35 93 1015.5
20260903025805 73 142 1.0 2.0 0.00 0.35 0.35 93 1015.6
20260903025306 73 142 0.0 3.0 0.00 0.35 0.35 93 1015.6
20260903024305 73 142 0.0 3.0 0.00 0.35 0.35 92 1015.8
20260903023305 73 146 2.0 3.0 0.00 0.35 0.35 92 1015.7
20260903022306 73 180 1.0 3.0 0.00 0.35 0.35 92 1015.9
20260903021804 73 180 1.0 2.0 0.00 0.35 0.35 92 1015.9
20260903021304 73 180 2.0 3.0 0.00 0.35 0.35 92 1016.0
20260903020804 73 180 1.0 2.0 0.00 0.35 0.35 92 1016.0
20260903020305 73 180 0.0 2.0 0.00 0.35 0.35 92 1016.0
20260903015805 73 180 1.0 3.0 0.00 0.35 0.35 92 1015.8
20260903015306 73 180 0.0 3.0 0.00 0.35 0.35 92 1015.7
20260903014804 73 180 0.0 3.0 0.00 0.35 0.35 92 1015.5
20260903014304 73 180 3.0 5.0 0.00 0.35 0.35 91 1015.5
20260903013804 73 137 1.0 3.0 0.00 0.35 0.35 92 1015.7
20260903012804 74 137 1.0 2.0 0.00 0.35 0.35 91 1015.9
20260903012306 74 126 0.0 2.0 0.00 0.35 0.35 91 1015.8
20260903011804 74 126 1.0 2.0 0.00 0.35 0.35 91 1015.7
20260903010804 74 134 0.0 3.0 0.00 0.35 0.35 91 1015.4
20260903010304 74 134 1.0 3.0 0.00 0.35 0.35 91 1015.3
20260903005804 74 134 2.0 3.0 0.00 0.35 0.35 90 1015.2
20260903005306 74 122 0.0 2.0 0.00 0.35 0.35 90 1015.1
20260903004305 74 16 0.0 1.0 0.00 0.35 0.35 90 1015.2
20260903003805 74 16 0.0 2.0 0.00 0.35 0.35 90 1015.4
20260903003304 74 16 3.0 3.0 0.00 0.35 0.35 90 1015.5
20260903002804 74 152 0.0 0.0 0.00 0.35 0.35 90 1015.5
20260903002306 75 152 0.0 0.0 0.00 0.35 0.35 89 1015.3
20260903001804 75 152 0.0 0.0 0.00 0.35 0.35 89 1015.4
20260903001304 75 152 0.0 0.0 0.00 0.35 0.35 89 1015.4
20260903000804 75 152 0.0 0.0 0.00 0.35 0.35 88 1015.2
20260903000304 75 152 0.0 0.0 0.00 0.35 0.35 88 1015.2
20260902235804 75 152 0.0 0.0 0.00 0.35 0.35 88 1015.5
20260902235306 75 152 0.0 0.0 0.00 0.35 0.35 88 1015.5
20260902234805 75 152 0.0 0.0 0.00 0.35 0.35 88 1015.4
20260902234304 75 152 0.0 0.0 0.00 0.35 0.35 88 1015.5
20260902233804 75 152 0.0 1.0 0.00 0.35 0.35 87 1015.4
20260902233304 75 152 0.0 0.0 0.00 0.35 0.35 87 1015.6
20260902232804 75 152 0.0 3.0 0.00 0.35 0.35 87 1015.6
20260902232306 75 152 1.0 2.0 0.00 0.35 0.35 87 1015.5
20260902231804 75 152 0.0 2.0 0.00 0.35 0.35 87 1015.4
20260902231304 76 237 0.0 2.0 0.00 0.35 0.35 87 1015.5
20260902230804 76 237 1.0 2.0 0.00 0.35 0.35 87 1015.6
20260902230304 76 237 0.0 2.0 0.00 0.35 0.35 87 1015.7
20260902225804 76 237 0.0 1.0 0.00 0.35 0.35 87 1015.7
20260902225306 76 237 0.0 1.0 0.00 0.35 0.35 87 1015.9
20260902224804 76 237 1.0 3.0 0.00 0.35 0.35 87 1015.7
20260902224304 76 158 1.0 3.0 0.00 0.35 0.35 87 1015.5
20260902223305 76 176 1.0 3.0 0.00 0.35 0.35 88 1015.5
20260902222805 76 183 2.0 3.0 0.00 0.35 0.35 88 1015.4
20260902222306 76 217 1.0 3.0 0.00 0.35 0.35 88 1015.4
20260902221805 76 191 2.0 5.0 0.00 0.35 0.35 88 1015.5
20260902221305 76 185 3.0 5.0 0.00 0.35 0.35 88 1015.5
20260902220804 76 187 2.0 3.0 0.00 0.35 0.35 89 1015.5
20260902220304 76 188 2.0 5.0 0.00 0.35 0.35 89 1015.6
20260902215804 76 204 2.0 3.0 0.00 0.35 0.35 90 1015.7
20260902215306 76 173 1.0 3.0 0.00 0.35 0.35 90 1015.7
20260902214304 76 169 1.0 3.0 0.00 0.35 0.35 91 1016.0
20260902213804 75 162 1.0 3.0 0.00 0.35 0.35 91 1016.2
20260902212804 75 280 1.0 3.0 0.00 0.35 0.35 92 1016.1
20260902212306 75 289 1.0 3.0 0.00 0.35 0.35 92 1016.2
20260902211804 75 289 0.0 2.0 0.00 0.35 0.35 92 1016.1
20260902211304 75 289 0.0 0.0 0.00 0.35 0.35 92 1016.1
20260902205805 75 289 1.0 3.0 0.00 0.35 0.35 92 1016.1
20260902205306 75 289 1.0 2.0 0.00 0.35 0.35 92 1016.0
20260902204305 75 354 0.0 2.0 0.00 0.35 0.35 92 1015.9
20260902203805 75 348 1.0 2.0 0.00 0.35 0.35 93 1016.0
20260902203304 74 293 0.0 1.0 0.00 0.35 0.35 93 1016.0
20260902202804 74 293 0.0 3.0 0.00 0.35 0.35 93 1016.2